Temperature
2 2 1 1 0 -0 -1 -2 -3 -4 -4 -3 -3 -2 -2 -1 -1 -1 -1 -2 -2 -2 -3 -3 -2 -2 -2 -2 -1 -1 -1 -0 -0 0 1 1 2 2
2 1 1 0 -0 -1 -2 -2 -3 -4 -5 -5 -4 -4 -3 -3 -2 -3 -3 -3 -3 -3 -3 -3 -3 -3 -2 -2 -2 -2 -1 -1 -1 -0 0 0 1 1
1 1 0 -0 -1 -1 -2 -3 -3 -4 -5 -4 -4 -4 -4 -4 -4 -3 -3 -3 -3 -3 -3 -3 -3 -3 -3 -3 -2 -2 -2 -1 -1 -1 -0 -0 0 1
1 0 -0 -1 -2 -2 -3 -3 -4 -4 -5 -5 -5 -5 -5 -5 -5 -4 -4 -4 -4 -4 -4 -4 -4 -4 -3 -3 -3 -2 -2 -2 -2 -1 -1 -1 -0 0
0 -0 -1 -2 -2 -3 -3 -4 -4 -4 -5 -5 -5 -5 -5 -5 -5 -5 -5 -5 -4 -4 -4 -4 -4 -4 -4 -3 -3 -3 -3 -2 -2 -2 -2 -1 -1 -1
-0 -1 -1 -2 -3 -3 -4 -4 -5 -5 -5 -6 -6 -6 -6 -5 -5 -5 -5 -5 -5 -5 -5 -5 -4 -4 -4 -4 -4 -3 -3 -3 -3 -3 -2 -2 -2 -1
-1 -1 -2 -3 -3 -4 -5 -5 -5 -5 -6 -6 -6 -6 -6 -6 -6 -6 -6 -6 -6 -5 -5 -4 -4 -4 -4 -4 -4 -4 -4 -3 -3 -3 -3 -3 -2 -2
-2 -2 -2 -3 -4 -4 -5 -5 -6 -6 -6 -6 -6 -6 -6 -6 -6 -6 -6 -6 -6 -6 -5 -5 -5 -5 -4 -4 -4 -4 -4 -4 -4 -3 -3 -3 -3 -3
-2 -3 -3 -4 -4 -5 -5 -5 -5 -6 -6 -6 -6 -6 -6 -6 -6 -6 -6 -6 -6 -6 -6 -6 -5 -5 -4 -4 -4 -4 -4 -4 -4 -4 -4 -3 -3 -3
-3 -3 -4 -4 -5 -5 -6 -6 -6 -6 -6 -6 -6 -6 -6 -6 -6 -6 -6 -6 -6 -6 -6 -6 -5 -5 -5 -5 -5 -4 -4 -4 -4 -4 -4 -3 -3 -3
-3 -4 -5 -5 -5 -6 -6 -6 -6 -6 -6 -6 -6 -6 -6 -6 -6 -6 -6 -7 -7 -6 -6 -6 -6 -6 -6 -5 -5 -5 -5 -4 -4 -4 -4 -4 -3 -3
-4 -4 -5 -6 -6 -6 -6 -6 -6 -6 -6 -6 -6 -6 -6 -6 -7 -7 -7 -7 -7 -7 -7 -7 -7 -7 -6 -6 -5 -5 -5 -5 -5 -4 -4 -4 -4 -4
-6 -6 -6 -6 -6 -6 -6 -6 -6 -6 -6 -6 -6 -6 -7 -7 -7 -7 -7 -8 -8 -8 -7 -8 -7 -7 -7 -7 -6 -5 -5 -5 -5 -5 -5 -4 -4 -4
-6 -6 -6 -7 -7 -6 -6 -6 -6 -6 -7 -7 -7 -7 -7 -7 -7 -7 -8 -8 -8 -8 -8 -8 -8 -7 -7 -7 -7 -6 -6 -6 -5 -5 -5 -5 -5 -4
-7 -7 -7 -7 -7 -7 -7 -7 -7 -7 -7 -7 -7 -7 -7 -8 -8 -8 -8 -8 -8 -8 -8 -8 -8 -8 -7 -7 -7 -6 -6 -6 -6 -6 -5 -5 -5 -5
-7 -7 -7 -7 -7 -7 -7 -7 -7 -8 -8 -8 -8 -8 -8 -8 -8 -8 -8 -8 -8 -7 -7 -8 -8 -8 -7 -7 -7 -7 -7 -7 -6 -6 -6 -6 -6 -5
-7 -7 -7 -7 -8 -8 -8 -8 -8 -8 -8 -9 -9 -9 -9 -9 -9 -9 -9 -9 -9 -8 -8 -7 -8 -8 -7 -7 -7 -7 -7 -6 -6 -6 -6 -6 -6 -6
-7 -8 -8 -8 -9 -9 -9 -9 -9 -9 -9 -9 -9 -9 -9 -9 -9 -9 -9 -9 -9 -9 -8 -8 -8 -8 -7 -7 -7 -7 -7 -7 -7 -7 -7 -7 -6 -6
-8 -8 -9 -9 -9 -10 -10 -10 -9 -9 -9 -10 -10 -9 -9 -9 -10 -10 -10 -9 -9 -9 -9 -9 -9 -9 -8 -8 -7 -7 -7 -7 -7 -7 -7 -7 -7 -6
-9 -9 -10 -10 -10 -10 -10 -10 -10 -10 -10 -10 -10 -10 -10 -10 -10 -10 -10 -10 -10 -9 -9 -9 -9 -9 -9 -9 -8 -8 -7 -7 -7 -7 -7 -7 -7 -7
-10 -10 -10 -11 -11 -11 -11 -11 -11 -10 -10 -10 -10 -10 -10 -10 -10 -10 -10 -10 -10 -10 -9 -9 -9 -9 -9 -9 -9 -8 -8 -8 -8 -8 -7 -7 -7 -7
-10 -11 -11 -11 -11 -11 -11 -11 -11 -11 -11 -10 -10 -10 -10 -10 -10 -10 -10 -10 -10 -10 -10 -9 -9 -9 -9 -9 -9 -8 -8 -8 -8 -8 -8 -8 -7 -7
-11 -11 -11 -11 -11 -12 -12 -12 -11 -11 -11 -11 -10 -10 -10 -10 -10 -10 -10 -10 -10 -10 -10 -10 -10 -10 -9 -9 -9 -9 -8 -8 -8 -8 -8 -8 -8 -7
Wind_Speed
6 6 5 5 5 6 6 6 6 10 9 5 4 4 10 16 21 20 19 24 27 28 28 28 28 28 28 28 28 28 28 28 27 27 27 27 27 26
5 6 7 6 6 6 6 6 7 9 11 5 6 7 10 16 22 21 20 27 27 27 27 27 27 27 27 28 28 27 27 27 28 28 28 28 28 27
7 7 8 8 6 6 6 7 7 8 14 12 6 7 9 12 14 18 20 18 19 25 26 27 27 26 26 26 27 27 27 26 26 27 27 28 28 27
8 8 9 8 8 7 7 8 8 8 11 16 10 8 9 10 12 13 13 16 16 23 26 27 26 26 26 25 25 25 25 25 25 25 26 26 26 25
9 9 10 9 10 8 9 9 9 10 10 13 14 9 8 9 10 11 12 11 15 20 23 23 24 25 25 25 25 24 23 23 23 22 22 23 23 24
10 10 10 10 11 10 10 10 10 11 11 12 13 10 9 8 8 9 10 8 10 12 17 20 23 25 25 25 24 23 22 22 22 22 21 21 22 22
10 10 11 13 16 14 12 10 9 10 10 11 12 11 9 7 7 7 11 10 9 10 10 11 11 10 12 19 21 22 22 22 22 22 22 22 22 21
10 10 10 13 17 21 23 22 19 14 11 11 12 13 11 9 9 10 11 12 11 5 6 8 7 9 9 7 18 22 22 22 22 21 21 21 21 21
10 10 10 11 17 10 17 22 21 23 22 16 15 14 13 11 11 13 12 13 13 7 8 11 8 10 9 12 21 22 22 22 22 21 20 19 19 19
10 10 11 11 12 14 12 13 13 14 16 13 12 14 13 13 12 13 13 12 10 8 7 9 8 9 9 8 19 21 21 21 21 20 19 18 17 17
10 10 11 11 19 23 16 13 13 12 17 21 21 20 22 21 16 9 8 9 10 7 4 5 6 7 7 8 11 17 17 16 17 16 16 15 15 14
9 10 17 18 22 24 15 12 14 12 11 11 13 14 12 13 17 9 6 8 8 6 4 3 5 4 5 4 4 4 6 11 13 12 12 11 11 5
10 8 9 21 24 25 22 13 17 16 10 8 7 7 7 6 7 6 6 6 8 7 4 4 5 4 5 5 4 4 4 4 4 5 7 9 9 6
11 8 11 22 24 24 19 18 22 18 6 5 6 6 6 6 6 6 7 7 8 10 9 8 6 6 6 7 6 3 3 3 3 3 3 5 6 7
11 19 23 25 23 16 18 21 17 8 5 6 7 7 5 6 5 5 6 7 8 8 8 8 8 7 7 7 6 4 3 3 2 2 2 2 2 2
13 17 23 23 18 16 15 12 7 6 7 7 7 6 5 4 5 4 5 5 5 5 6 6 6 6 6 7 6 6 4 3 2 2 2 2 2 2
14 10 8 7 6 6 7 7 6 6 7 6 6 7 6 6 5 4 4 4 4 5 6 5 5 5 6 6 5 5 4 3 3 2 2 2 3 3
17 10 8 7 8 8 8 7 6 7 7 7 7 7 7 6 6 5 4 4 5 5 5 4 4 4 3 3 5 5 4 3 3 2 2 2 3 3
12 8 8 8 8 8 8 8 8 7 7 7 7 7 7 6 6 5 5 4 5 5 5 4 3 2 3 4 4 3 2 2 2 2 1 2 3 3
7 9 9 9 9 8 8 8 8 7 7 7 7 7 6 6 6 6 5 5 5 5 5 3 3 3 3 3 3 3 4 3 2 2 2 2 2 4
9 9 9 9 9 8 8 8 8 8 8 7 7 7 6 6 6 6 6 8 7 5 5 5 5 6 4 2 3 3 3 4 4 3 1 1 1 1
10 10 9 9 9 8 8 8 8 9 8 8 7 7 6 6 7 7 6 6 5 5 6 5 4 3 2 3 4 4 4 3 4 4 4 3 2 2
10 10 10 9 8 7 8 9 10 9 8 8 7 7 7 6 6 6 6 6 6 6 5 4 3 2 3 3 4 4 4 3 2 1 2 4 5 5
Wind_Direction
261 262 257 256 252 250 248 247 266 293 295 255 258 270 288 295 296 296 290 294 296 295 293 291 289 288 286 284 282 279 278 276 275 275 273 272 271 270
262 261 260 259 257 253 250 249 243 265 284 263 261 273 284 291 294 296 294 296 298 297 294 292 289 287 285 283 282 281 279 276 274 272 271 269 268 268
271 266 264 263 261 259 253 252 252 255 277 285 266 267 268 275 285 288 289 288 288 292 293 292 289 287 285 283 282 280 279 277 276 273 271 269 268 268
271 269 269 270 262 260 258 256 258 253 267 284 286 276 267 269 274 278 285 287 284 289 291 291 290 289 287 285 283 281 279 278 278 277 274 272 271 270
265 265 267 266 268 265 260 262 264 267 263 275 285 281 274 273 276 277 276 278 283 287 290 291 291 290 288 287 286 285 284 283 282 281 278 276 274 272
261 259 260 259 263 266 269 264 264 266 267 272 282 285 279 270 269 279 286 276 278 283 285 285 287 288 289 290 290 289 289 287 285 282 279 277 274 272
263 258 259 267 273 276 279 272 266 270 275 279 284 286 282 278 275 277 287 288 278 272 274 275 277 275 278 282 285 285 283 282 280 278 275 273 272 270
269 267 265 274 281 286 288 290 288 284 282 280 283 283 284 279 280 282 286 289 289 254 258 274 268 271 269 259 274 278 278 278 277 274 272 271 269 268
269 272 278 279 288 279 285 288 285 283 282 281 281 282 282 279 279 281 279 279 281 278 279 283 273 273 271 272 278 279 279 278 276 275 273 271 269 267
267 266 270 273 273 280 272 270 265 267 271 274 269 271 272 273 269 274 282 285 279 271 260 276 277 274 276 268 278 280 280 279 278 276 274 272 271 269
269 267 272 270 279 287 287 281 278 272 278 279 278 280 284 290 292 292 291 293 293 285 249 256 275 280 279 274 273 280 284 286 285 282 277 275 274 272
274 267 278 284 288 291 288 281 282 282 276 276 279 283 286 289 293 288 281 284 289 289 261 255 275 289 290 274 278 290 293 292 292 292 288 287 285 281
283 277 271 288 291 292 291 285 284 289 284 276 273 272 272 269 271 270 261 260 274 274 275 282 279 266 266 288 290 274 270 274 291 296 299 295 287 275
287 282 279 290 292 293 296 292 294 301 292 280 277 275 271 269 268 269 265 258 255 265 275 276 274 276 278 280 282 281 281 273 269 274 283 299 297 288
284 288 292 295 298 298 295 295 298 296 281 277 276 274 262 260 268 276 278 275 271 266 268 265 265 270 268 272 275 273 284 282 266 270 284 281 279 289
286 287 291 292 292 291 293 295 286 270 272 271 273 271 266 265 267 270 281 293 295 292 280 273 272 273 272 269 271 276 266 269 289 279 282 285 279 265
291 286 282 282 277 276 278 275 269 271 279 269 270 273 273 269 272 269 269 278 279 292 302 303 292 275 262 266 270 268 270 270 268 273 275 288 285 275
300 292 288 285 286 286 285 283 276 272 270 268 268 267 268 267 272 271 265 267 275 282 287 295 314 324 323 287 248 261 268 271 276 262 245 273 289 289
298 287 283 283 282 279 277 277 278 273 266 264 264 263 261 260 262 267 265 265 269 274 278 282 293 299 304 303 301 273 257 276 283 284 262 255 271 286
279 279 278 278 279 277 275 276 277 275 266 262 260 258 254 256 259 260 259 258 266 272 278 275 262 252 250 273 286 295 288 265 260 267 273 275 281 293
282 279 276 276 276 275 274 274 273 275 270 263 259 253 248 247 252 253 254 265 269 264 267 269 262 278 269 262 271 279 292 286 264 239 232 250 293 324
282 281 278 273 272 272 273 273 272 272 268 261 257 253 247 243 247 248 248 250 251 252 260 268 275 277 226 233 254 272 288 301 299 275 250 228 195 206
278 279 278 274 270 270 272 270 269 271 267 260 255 252 247 245 244 244 243 243 247 252 258 267 267 238 230 232 246 262 272 282 294 296 285 265 245 247
Height
1493 1490 1487 1485 1482 1479 1476 1472 1467 1456 1449 1448 1447 1446 1444 1441 1438 1434 1430 1427 1424 1422 1420 1418 1417 1416 1415 1414 1414 1413 1413 1413 1413 1413 1414 1415 1416 1417
1487 1483 1480 1478 1475 1472 1469 1466 1462 1456 1446 1440 1440 1439 1436 1433 1430 1427 1423 1420 1417 1414 1411 1409 1408 1407 1406 1405 1404 1404 1404 1404 1404 1404 1405 1406 1407 1408
1480 1477 1474 1471 1467 1464 1461 1458 1455 1450 1441 1433 1433 1431 1428 1426 1422 1420 1416 1413 1409 1407 1404 1401 1400 1398 1397 1396 1395 1395 1394 1394 1394 1394 1395 1396 1397 1398
1473 1470 1466 1463 1459 1456 1453 1450 1446 1443 1437 1428 1424 1423 1421 1418 1415 1412 1409 1406 1402 1399 1396 1394 1392 1390 1389 1388 1387 1386 1386 1386 1385 1385 1386 1387 1388 1389
1466 1462 1459 1455 1451 1448 1445 1441 1438 1434 1430 1424 1417 1415 1413 1411 1407 1404 1401 1398 1395 1392 1389 1386 1384 1382 1381 1380 1379 1378 1377 1377 1376 1376 1376 1377 1378 1379
1458 1455 1451 1447 1443 1440 1436 1433 1430 1426 1422 1418 1412 1408 1406 1404 1401 1397 1393 1390 1387 1385 1381 1379 1377 1375 1373 1372 1370 1369 1369 1368 1367 1367 1368 1368 1369 1370
1450 1447 1443 1439 1435 1432 1429 1426 1423 1419 1415 1411 1406 1402 1399 1397 1394 1391 1386 1382 1378 1377 1373 1371 1369 1366 1365 1363 1362 1361 1360 1360 1359 1359 1359 1360 1361 1362
1441 1438 1434 1431 1428 1424 1422 1419 1416 1412 1408 1404 1400 1396 1392 1390 1387 1384 1380 1375 1370 1369 1366 1362 1362 1358 1357 1355 1354 1353 1352 1352 1352 1351 1352 1352 1353 1354
1433 1429 1425 1422 1419 1416 1412 1409 1406 1404 1402 1399 1393 1389 1386 1384 1381 1376 1373 1369 1364 1362 1360 1355 1354 1351 1349 1347 1346 1345 1345 1344 1344 1344 1344 1345 1345 1346
1425 1421 1417 1413 1410 1407 1402 1399 1396 1394 1393 1390 1386 1382 1379 1376 1374 1370 1366 1362 1358 1356 1354 1349 1346 1344 1342 1340 1339 1338 1337 1337 1337 1337 1337 1338 1338 1339
1416 1413 1409 1405 1402 1399 1396 1391 1387 1385 1384 1381 1378 1375 1373 1370 1368 1364 1360 1356 1351 1348 1347 1344 1340 1337 1335 1332 1332 1331 1330 1330 1330 1330 1330 1331 1332 1333
1406 1403 1401 1398 1394 1392 1389 1384 1380 1377 1375 1371 1369 1367 1364 1362 1360 1357 1354 1350 1346 1342 1340 1339 1335 1334 1329 1327 1327 1326 1325 1325 1325 1324 1325 1325 1326 1326
1397 1394 1392 1389 1386 1384 1381 1377 1373 1370 1367 1364 1361 1358 1356 1354 1352 1350 1347 1344 1341 1337 1336 1335 1331 1329 1328 1324 1322 1321 1321 1320 1320 1320 1320 1320 1320 1321
1390 1387 1383 1381 1378 1376 1373 1369 1367 1364 1360 1356 1353 1351 1349 1347 1345 1342 1340 1338 1336 1333 1331 1330 1327 1325 1323 1320 1318 1317 1316 1316 1316 1315 1315 1315 1316 1316
1383 1379 1376 1373 1370 1367 1364 1361 1359 1355 1352 1349 1346 1344 1342 1340 1338 1336 1334 1332 1330 1328 1326 1324 1322 1320 1319 1317 1315 1313 1312 1312 1312 1311 1311 1311 1311 1312
1375 1371 1368 1364 1361 1358 1355 1353 1350 1348 1345 1342 1339 1337 1336 1334 1332 1330 1328 1326 1324 1323 1322 1320 1318 1316 1314 1313 1312 1310 1310 1309 1309 1309 1308 1308 1308 1308
1367 1363 1359 1355 1352 1349 1346 1344 1342 1340 1338 1335 1333 1331 1330 1328 1327 1325 1324 1322 1320 1318 1316 1315 1314 1312 1310 1309 1308 1307 1307 1306 1306 1306 1306 1305 1305 1305
1360 1355 1351 1348 1345 1342 1339 1336 1334 1333 1331 1329 1327 1325 1324 1323 1321 1320 1319 1317 1316 1314 1312 1311 1310 1308 1308 1306 1306 1305 1304 1304 1304 1304 1303 1303 1303 1303
1351 1347 1343 1340 1337 1334 1332 1329 1327 1326 1324 1322 1321 1319 1318 1317 1316 1315 1314 1313 1311 1310 1309 1308 1307 1306 1305 1303 1303 1303 1303 1302 1302 1302 1302 1302 1301 1301
1343 1339 1335 1332 1330 1327 1325 1323 1321 1319 1317 1316 1315 1314 1313 1312 1311 1310 1309 1308 1307 1306 1305 1304 1304 1303 1302 1302 1301 1300 1301 1300 1300 1300 1300 1300 1300 1300
1334 1330 1327 1325 1322 1320 1318 1316 1314 1312 1310 1309 1308 1307 1307 1306 1305 1304 1304 1303 1302 1301 1300 1300 1300 1300 1299 1299 1298 1297 1298 1298 1298 1298 1298 1298 1298 1298
1325 1322 1319 1317 1314 1312 1310 1308 1306 1305 1303 1302 1301 1301 1300 1300 1299 1298 1298 1298 1297 1296 1296 1296 1296 1296 1295 1295 1295 1295 1295 1295 1296 1296 1297 1297 1298 1298
1317 1314 1311 1308 1306 1304 1302 1300 1299 1297 1296 1295 1295 1294 1294 1293 1293 1293 1292 1292 1292 1291 1291 1291 1291 1291 1291 1292 1292 1292 1292 1293 1293 1294 1295 1296 1296 1297